Location: White Mills Observatory
(37.5374°N, 86.0303°W)
Time: 09:56:24
(UTC-04:00)

Amateur Radio Satellites - All Passes

Search period start: 23 April 2014 09:26
Search period end: 24 April 2014 09:26
Location: White Mills Observatory, 37.5374°N, 86.0303°W

Satellite Date Start Highest point End Downlink Frequencies (MHz)
Time Altitude Azimuth
HO-68 23 Apr 09:33:41 09:37:58 16° 91° (E) 09:42:12 435.675 MHz FM
Saudisat 1A 23 Apr 10:04:54 10:08:17 21° 111° (ESE) 10:11:40 436.775 MHz
JAS-2 23 Apr 10:05:23 10:09:51 25° 292° (WNW) 10:14:40 435.800 - 435.900 CW/SSB, 435.910 FM
PCSat 23 Apr 10:07:07 10:12:34 80° 62° (ENE) 10:17:58 145.825 MHz
PANSAT 23 Apr 10:17:18 10:20:09 20° 186° (S) 10:23:01 not established
RS-15 23 Apr 10:23:31 10:31:32 22° 332° (NNW) 10:39:30 29.354 - 29.394 USB, Beacon 29.352 USB
Oscar 11 23 Apr 10:54:28 10:58:16 28° 96° (E) 11:02:02 145.825 FM, Beacon 2401.500 USB
KITSAT 1 23 Apr 11:05:18 11:12:12 30° 46° (NE) 11:19:02 435.175 FM
Sapphire 23 Apr 11:06:23 11:11:11 33° 251° (WSW) 11:15:58 437.095 MHz 1200 baud AX-25 AFSK
HO-68 23 Apr 11:19:07 11:26:19 80° 288° (WNW) 11:33:30 435.675 MHz FM
Saudisat 1A 23 Apr 11:43:32 11:47:39 36° 307° (NW) 11:51:48 436.775 MHz
PCSat 23 Apr 11:53:22 11:55:13 12° 258° (WSW) 11:57:04 145.825 MHz
PANSAT 23 Apr 11:58:47 11:59:44 11° 198° (SSW) 12:00:40 not established
Oscar 10/S400 23 Apr 12:10:50 13:53:21 46° 249° (WSW) 19:15:03 145.825 - 145.975 CW/USB, Beacon 145.810 USB
Oscar 11 23 Apr 12:30:53 12:34:17 23° 291° (WNW) 12:37:42 145.825 FM, Beacon 2401.500 USB
FUNcube-1 23 Apr 12:32:36 12:36:53 68° 284° (WNW) 12:41:16 145.950 - 145.970 MHz USB
RS-15 23 Apr 12:44:16 12:50:02 15° 9° (N) 12:55:48 29.354 - 29.394 USB, Beacon 29.352 USB
KITSAT 1 23 Apr 13:00:10 13:08:10 66° 246° (WSW) 13:16:06 435.175 FM
HO-68 23 Apr 13:09:21 13:12:54 15° 305° (NW) 13:16:27 435.675 MHz FM
AO-27 23 Apr 13:43:27 13:46:11 15° 62° (ENE) 13:48:55 436.795 MHz FM
Oscar 19 23 Apr 13:46:08 13:50:28 28° 68° (ENE) 13:54:50 437.125 CW, 437.150 USB
ITAMSAT 1 23 Apr 13:52:20 13:55:39 17° 64° (ENE) 13:58:57 435.822 SSB
Oscar 16 23 Apr 13:54:47 13:59:28 37° 70° (ENE) 14:04:11 437.025 USB, Beacon 2401.1428
ISS 23 Apr 14:08:52 14:12:00 40° 135° (SE) 14:15:09 145.800 FM
Uribyol 2 23 Apr 14:37:39 14:42:36 49° 72° (ENE) 14:47:34 436.500 FM
TMSAT-1 23 Apr 14:46:17 14:48:19 12° 61° (ENE) 14:50:22 436.925 FM
JAS-1B 23 Apr 14:50:18 14:51:52 11° 58° (ENE) 14:53:23 435.800 - 435.900 CW/SSB
AO-Echo 23 Apr 14:52:15 14:57:18 52° 73° (ENE) 15:02:13 ?
RS-15 23 Apr 14:57:17 15:07:07 36° 43° (NE) 15:17:05 29.354 - 29.394 USB, Beacon 29.352 USB
SO-50 23 Apr 15:16:02 15:20:27 64° 118° (ESE) 15:24:55 436.795 FM
AO-27 23 Apr 15:19:58 15:25:07 66° 258° (WSW) 15:30:17 436.795 MHz FM
Oscar 19 23 Apr 15:25:10 15:29:41 31° 263° (W) 15:34:16 437.125 CW, 437.150 USB
ITAMSAT 1 23 Apr 15:29:37 15:34:41 54° 259° (W) 15:39:45 435.822 SSB
Oscar 16 23 Apr 15:34:48 15:38:52 24° 265° (W) 15:42:59 437.025 USB, Beacon 2401.1428
Gurwin Techsat 1B 23 Apr 15:37:02 15:42:11 54° 73° (ENE) 15:47:21 435.225 FM
ISS 23 Apr 15:46:05 15:48:49 23° 331° (NNW) 15:51:34 145.800 FM
Uribyol 2 23 Apr 16:18:57 16:22:19 18° 267° (W) 16:25:43 436.500 FM
TMSAT-1 23 Apr 16:22:13 16:27:31 81° 257° (WSW) 16:32:50 436.925 FM
OPAL 23 Apr 16:23:32 16:28:41 58° 103° (ESE) 16:33:48 ?
AO-Echo 23 Apr 16:32:59 16:36:17 17° 267° (W) 16:39:33 ?
JAS-1B 23 Apr 16:33:45 16:41:40 71° 74° (ENE) 16:48:16 435.800 - 435.900 CW/SSB
AO-7 23 Apr 16:36:28 16:44:16 48° 65° (ENE) 16:52:05 29.400 - 29.500 MHz
Uosat F 23 Apr 16:53:09 16:58:09 74° 75° (ENE) 17:03:10 435.120 FM
SO-50 23 Apr 16:58:49 17:01:27 15° 316° (NW) 17:04:06 436.795 FM
RS-15 23 Apr 17:09:24 17:20:14 69° 245° (WSW) 17:31:25 29.354 - 29.394 USB, Beacon 29.352 USB
UOSAT-12 23 Apr 17:14:00 17:18:25 55° 117° (ESE) 17:22:57 437.025 FM, 437.400 FM
Gurwin Techsat 1B 23 Apr 17:19:04 17:22:26 17° 268° (W) 17:25:49 435.225 FM
OPAL 23 Apr 18:03:46 18:07:04 17° 299° (WNW) 18:10:21 ?
Hamsat 23 Apr 18:21:53 18:25:03 21° 69° (ENE) 18:28:15 145.90 MHz
JAS-1B 23 Apr 18:27:17 18:32:29 19° 265° (W) 18:37:12 435.800 - 435.900 CW/SSB
AO-7 23 Apr 18:29:47 18:37:08 35° 262° (W) 18:44:34 29.400 - 29.500 MHz
JAS-2 23 Apr 18:33:54 18:36:09 13° 63° (ENE) 18:38:21 435.800 - 435.900 CW/SSB, 435.910 FM
Saudisat 1A 23 Apr 18:34:08 18:36:04 13° 43° (NE) 18:38:00 436.775 MHz
Uosat F 23 Apr 18:36:17 18:37:25 11° 270° (W) 18:38:33 435.120 FM
UOSAT-12 23 Apr 18:55:46 18:58:55 18° 314° (NW) 19:02:06 437.025 FM, 437.400 FM
STRAND 1 23 Apr 19:11:09 19:13:22 13° 91° (E) 19:15:35 ?
RS-15 23 Apr 19:27:06 19:30:29 12° 263° (W) 19:33:54 29.354 - 29.394 USB, Beacon 29.352 USB
SO-67 23 Apr 19:53:26 19:56:40 37° 74° (ENE) 19:59:56 435.3500 MHz FM
Hamsat 23 Apr 19:57:12 20:00:51 29° 264° (W) 20:04:33 145.90 MHz
HO-68 23 Apr 20:04:04 20:05:46 11° 52° (NE) 20:07:28 435.675 MHz FM
Saudisat 1A 23 Apr 20:11:50 20:16:14 80° 241° (WSW) 20:20:36 436.775 MHz
JAS-2 23 Apr 20:14:58 20:20:44 75° 257° (WSW) 20:26:01 435.800 - 435.900 CW/SSB, 435.910 FM
ISS 23 Apr 20:39:23 20:42:18 27° 31° (NNE) 20:45:12 145.800 FM
STRAND 1 23 Apr 20:47:55 20:52:59 65° 286° (WNW) 20:58:01 ?
MaSat-1 23 Apr 20:51:25 20:53:34 19° 110° (ESE) 20:55:33 437.345 MHz
SO-67 23 Apr 21:29:34 21:29:59 10° 268° (W) 21:30:24 435.3500 MHz FM
HO-68 23 Apr 21:45:04 21:52:04 64° 70° (ENE) 21:59:08 435.675 MHz FM
Oscar 11 23 Apr 21:48:33 21:51:31 19° 67° (ENE) 21:54:30 145.825 FM, Beacon 2401.500 USB
ISS 23 Apr 22:16:00 22:19:01 31° 227° (SW) 22:22:01 145.800 FM
MaSat-1 23 Apr 22:31:10 22:31:50 11° 301° (WNW) 22:32:30 437.345 MHz
PCSat 23 Apr 23:07:06 23:09:24 13° 103° (ESE) 23:11:43 145.825 MHz
Oscar 11 23 Apr 23:23:30 23:27:26 35° 262° (W) 23:31:24 145.825 FM, Beacon 2401.500 USB
FUNcube-1 23 Apr 23:27:20 23:31:30 75° 76° (ENE) 23:35:40 145.950 - 145.970 MHz USB
HO-68 23 Apr 23:35:00 23:40:13 22° 266° (W) 23:45:28 435.675 MHz FM
SO-50 23 Apr 23:49:36 23:53:53 35° 53° (NE) 23:58:11 436.795 FM
Sapphire 24 Apr 00:02:43 00:07:46 42° 111° (ESE) 00:12:50 437.095 MHz 1200 baud AX-25 AFSK
PCSat 24 Apr 00:46:43 00:52:07 74° 298° (WNW) 00:57:33 145.825 MHz
SO-50 24 Apr 01:30:29 01:34:17 25° 248° (WSW) 01:38:06 436.795 FM
KITSAT 1 24 Apr 01:33:04 01:38:57 23° 103° (ESE) 01:44:50 435.175 FM
UOSAT-12 24 Apr 01:45:39 01:49:48 30° 51° (NE) 01:53:55 437.025 FM, 437.400 FM
Sapphire 24 Apr 01:46:48 01:51:18 26° 308° (NW) 01:55:51 437.095 MHz 1200 baud AX-25 AFSK
Oscar 19 24 Apr 02:01:55 02:03:21 11° 90° (E) 02:04:47 437.125 CW, 437.150 USB
Oscar 16 24 Apr 02:09:42 02:12:41 15° 92° (E) 02:15:38 437.025 USB, Beacon 2401.1428
PCSat 24 Apr 02:34:32 02:36:29 12° 317° (NW) 02:38:25 145.825 MHz
Uribyol 2 24 Apr 02:53:09 02:57:00 21° 94° (E) 03:00:49 436.500 FM
AO-Echo 24 Apr 03:02:48 03:05:57 18° 93° (E) 03:09:04 ?
KITSAT 1 24 Apr 03:25:27 03:33:32 72° 301° (WNW) 03:41:41 435.175 FM
UOSAT-12 24 Apr 03:25:48 03:29:54 30° 247° (WSW) 03:33:58 437.025 FM, 437.400 FM
AO-27 24 Apr 03:35:02 03:40:06 52° 100° (E) 03:45:08 436.795 MHz FM
OPAL 24 Apr 03:36:35 03:41:37 83° 73° (ENE) 03:46:46 ?
Oscar 19 24 Apr 03:38:00 03:43:13 76° 285° (WNW) 03:48:23 437.125 CW, 437.150 USB
ITAMSAT 1 24 Apr 03:44:22 03:49:31 63° 102° (ESE) 03:54:38 435.822 SSB
Oscar 16 24 Apr 03:47:16 03:52:22 58° 287° (WNW) 03:57:27 437.025 USB, Beacon 2401.1428
Gurwin Techsat 1B 24 Apr 03:55:50 04:00:09 25° 95° (E) 04:04:28 435.225 FM
JAS-1B 24 Apr 04:22:07 04:25:33 16° 94° (E) 04:29:08 435.800 - 435.900 CW/SSB
Uribyol 2 24 Apr 04:31:45 04:36:37 43° 289° (WNW) 04:41:29 436.500 FM
TMSAT-1 24 Apr 04:40:13 04:45:20 48° 99° (E) 04:50:25 436.925 FM
AO-Echo 24 Apr 04:40:29 04:44:55 41° 289° (WNW) 04:49:17 ?
AO-7 24 Apr 04:42:17 04:46:50 16° 91° (E) 04:51:22 29.400 - 29.500 MHz
Uosat F 24 Apr 05:03:28 05:07:38 26° 96° (E) 05:11:48 435.120 FM
AO-27 24 Apr 05:15:45 05:19:11 18° 296° (WNW) 05:22:36 436.795 MHz FM
RS-15 24 Apr 05:21:36 05:29:32 22° 102° (ESE) 05:37:15 29.354 - 29.394 USB, Beacon 29.352 USB
KITSAT 1 24 Apr 05:25:11 05:30:28 18° 323° (NW) 05:35:46 435.175 FM
ITAMSAT 1 24 Apr 05:25:35 05:28:27 15° 297° (WNW) 05:31:19 435.822 SSB
Gurwin Techsat 1B 24 Apr 05:35:20 05:40:10 37° 290° (WNW) 05:44:59 435.225 FM
JAS-1B 24 Apr 06:11:00 06:16:34 58° 287° (WNW) 06:22:36 435.800 - 435.900 CW/SSB
TMSAT-1 24 Apr 06:21:06 06:24:52 20° 295° (WNW) 06:28:38 436.925 FM
STRAND 1 24 Apr 06:25:07 06:28:18 17° 64° (ENE) 06:31:28 ?
AO-7 24 Apr 06:32:11 06:40:34 88° 108° (ESE) 06:48:55 29.400 - 29.500 MHz
PANSAT 24 Apr 06:35:21 06:36:24 11° 162° (SSE) 06:37:26 not established
Uosat F 24 Apr 06:42:00 06:46:24 32° 291° (WNW) 06:50:46 435.120 FM
MaSat-1 24 Apr 06:52:46 06:55:51 48° 65° (ENE) 06:59:32 437.345 MHz
JAS-2 24 Apr 07:26:49 07:29:39 14° 93° (E) 07:32:37 435.800 - 435.900 CW/SSB, 435.910 FM
RS-15 24 Apr 07:29:07 07:40:32 85° 300° (WNW) 07:51:35 29.354 - 29.394 USB, Beacon 29.352 USB
Hamsat 24 Apr 07:44:18 07:48:36 56° 100° (E) 07:52:53 145.90 MHz
STRAND 1 24 Apr 08:02:01 08:07:01 55° 259° (W) 08:12:02 ?
PANSAT 24 Apr 08:13:06 08:15:58 20° 174° (S) 08:18:50 not established
AO-7 24 Apr 08:26:44 08:32:17 20° 306° (NW) 08:37:51 29.400 - 29.500 MHz
SO-67 24 Apr 08:52:35 08:56:04 63° 100° (E) 08:59:31 435.3500 MHz FM
Sapphire 24 Apr 08:52:54 08:57:15 24° 51° (NE) 09:01:35 437.095 MHz 1200 baud AX-25 AFSK
JAS-2 24 Apr 09:09:28 09:15:03 73° 285° (WNW) 09:21:19 435.800 - 435.900 CW/SSB, 435.910 FM
HO-68 24 Apr 09:18:45 09:20:48 11° 89° (E) 09:22:51 435.675 MHz FM
Hamsat 24 Apr 09:22:15 09:24:05 13° 295° (WNW) 09:25:55 145.90 MHz
